SWA4530 KMSY-KRSW

Flight info

Callsign SWA4530
Flight time 1h 20m
Altitude 39000
Route BLVNS Q102 BUNNZ KOLBR TYNEE4
Aircraft B38M/M-SDE1FGHILORVWXY/HB1

Departure

Time 2026-05-05 03:08
Airport Louis Armstrong New Orleans International Airport (KMSY)

Arrival

Time 2026-05-05 04:28
Airport Southwest Florida International Airport (KRSW)
Time Latitude Longitude Altitude Speed Heading
2026-05-05 03:07 29.99535 -90.27616 3 ft 21 kts 109°
2026-05-05 03:07 29.99521 -90.27554 4 ft 7 kts 109°
2026-05-05 03:07 29.99492 -90.27439 5 ft 28 kts 106°
2026-05-05 03:07 29.99378 -90.26965 10 ft 93 kts 105°
2026-05-05 03:08 29.99153 -90.26033 9 ft 146 kts 105°
2026-05-05 03:08 29.98833 -90.24806 248 ft 166 kts 112°
2026-05-05 03:08 29.98252 -90.23592 622 ft 182 kts 127°
2026-05-05 03:08 29.97395 -90.22542 1296 ft 175 kts 139°
2026-05-05 03:09 29.96517 -90.21557 2011 ft 182 kts 137°
2026-05-05 03:09 29.95598 -90.20438 2513 ft 204 kts 136°
2026-05-05 03:09 29.94582 -90.19170 3024 ft 226 kts 134°
2026-05-05 03:09 29.93504 -90.17754 3652 ft 240 kts 132°
2026-05-05 03:10 29.92421 -90.16284 4580 ft 243 kts 131°
2026-05-05 03:10 29.91315 -90.14757 5317 ft 253 kts 131°
2026-05-05 03:10 29.90175 -90.13169 6081 ft 262 kts 131°
2026-05-05 03:10 29.88995 -90.11512 6740 ft 272 kts 131°
2026-05-05 03:11 29.87788 -90.09809 7515 ft 276 kts 130°
2026-05-05 03:11 29.86559 -90.08072 8260 ft 283 kts 130°
2026-05-05 03:11 29.85306 -90.06301 9030 ft 288 kts 130°
2026-05-05 03:11 29.84026 -90.04491 9759 ft 296 kts 129°
2026-05-05 03:12 29.82716 -90.02640 10442 ft 303 kts 129°
2026-05-05 03:12 29.81339 -90.00698 10869 ft 323 kts 129°
2026-05-05 03:12 29.79879 -89.98637 11276 ft 341 kts 130°
2026-05-05 03:12 29.78349 -89.96478 11817 ft 354 kts 130°
2026-05-05 03:13 29.76784 -89.94270 12667 ft 356 kts 130°
2026-05-05 03:13 29.75203 -89.92041 13447 ft 363 kts 130°
2026-05-05 03:13 29.73598 -89.89780 14237 ft 367 kts 130°
2026-05-05 03:13 29.71973 -89.87492 14973 ft 372 kts 130°
2026-05-05 03:14 29.70320 -89.85165 15706 ft 378 kts 130°
2026-05-05 03:14 29.68645 -89.82809 16419 ft 384 kts 130°
2026-05-05 03:14 29.66943 -89.80416 17120 ft 389 kts 130°
2026-05-05 03:14 29.65218 -89.77993 17813 ft 395 kts 130°
2026-05-05 03:15 29.63466 -89.75533 18465 ft 400 kts 130°
2026-05-05 03:15 29.61692 -89.73043 19042 ft 405 kts 130°
2026-05-05 03:15 29.59893 -89.70521 19610 ft 411 kts 130°
2026-05-05 03:15 29.58070 -89.67967 20182 ft 416 kts 130°
2026-05-05 03:16 29.56225 -89.65383 20730 ft 421 kts 130°
2026-05-05 03:16 29.54355 -89.62765 21267 ft 426 kts 130°
2026-05-05 03:16 29.52464 -89.60119 21783 ft 431 kts 130°
2026-05-05 03:16 29.50549 -89.57443 22295 ft 437 kts 130°
2026-05-05 03:17 29.48610 -89.54733 22808 ft 441 kts 130°
2026-05-05 03:17 29.46649 -89.51997 23320 ft 446 kts 130°
2026-05-05 03:17 29.44666 -89.49230 23775 ft 451 kts 130°
2026-05-05 03:17 29.42663 -89.46438 24218 ft 455 kts 130°
2026-05-05 03:18 29.40667 -89.43658 24651 ft 459 kts 130°
2026-05-05 03:18 29.38630 -89.40821 25066 ft 463 kts 130°
2026-05-05 03:18 29.36545 -89.37921 25496 ft 467 kts 130°
2026-05-05 03:18 29.34499 -89.35076 25900 ft 471 kts 130°
2026-05-05 03:19 29.30297 -89.29241 26707 ft 478 kts 130°
2026-05-05 03:19 29.28171 -89.26293 27104 ft 482 kts 130°
2026-05-05 03:19 29.26027 -89.23321 27505 ft 486 kts 130°
2026-05-05 03:20 29.23866 -89.20326 27850 ft 490 kts 130°
2026-05-05 03:20 29.21689 -89.17313 28255 ft 492 kts 129°
2026-05-05 03:20 29.19498 -89.14283 28644 ft 496 kts 129°
2026-05-05 03:20 29.17291 -89.11233 29000 ft 500 kts 129°
2026-05-05 03:21 29.15065 -89.08158 29379 ft 503 kts 129°
2026-05-05 03:21 29.12824 -89.05066 29742 ft 507 kts 129°
2026-05-05 03:21 29.10568 -89.01955 30101 ft 510 kts 129°
2026-05-05 03:21 29.08295 -88.98823 30395 ft 513 kts 129°
2026-05-05 03:22 29.06012 -88.95679 30703 ft 516 kts 129°
2026-05-05 03:22 29.03712 -88.92515 31020 ft 519 kts 129°
2026-05-05 03:22 29.01398 -88.89334 31330 ft 521 kts 129°
2026-05-05 03:22 28.99073 -88.86140 31620 ft 524 kts 129°
2026-05-05 03:23 28.96735 -88.82931 31909 ft 527 kts 129°
2026-05-05 03:23 28.94383 -88.79704 32147 ft 530 kts 129°
2026-05-05 03:23 28.92024 -88.76471 32545 ft 530 kts 130°
2026-05-05 03:23 28.89658 -88.73231 32858 ft 533 kts 130°
2026-05-05 03:24 28.87279 -88.69976 33132 ft 536 kts 130°
2026-05-05 03:24 28.84886 -88.66704 33426 ft 538 kts 130°
2026-05-05 03:24 28.82482 -88.63419 33709 ft 541 kts 130°
2026-05-05 03:24 28.80069 -88.60125 33983 ft 543 kts 130°
2026-05-05 03:25 28.77638 -88.56810 34234 ft 545 kts 130°
2026-05-05 03:25 28.75201 -88.53488 34506 ft 547 kts 130°
2026-05-05 03:25 28.72759 -88.50163 34770 ft 548 kts 130°
2026-05-05 03:25 28.70307 -88.46826 35054 ft 550 kts 130°
2026-05-05 03:26 28.67849 -88.43483 35310 ft 551 kts 130°
2026-05-05 03:26 28.65386 -88.40138 35563 ft 551 kts 130°
2026-05-05 03:26 28.62926 -88.36799 35905 ft 550 kts 131°
2026-05-05 03:26 28.60470 -88.33468 36262 ft 548 kts 131°
2026-05-05 03:27 28.58021 -88.30148 36601 ft 547 kts 131°
2026-05-05 03:27 28.55581 -88.26844 36956 ft 544 kts 131°
2026-05-05 03:27 28.53154 -88.23558 37337 ft 541 kts 132°
2026-05-05 03:27 28.50734 -88.20285 37648 ft 540 kts 132°
2026-05-05 03:28 28.48320 -88.17022 37928 ft 539 kts 132°
2026-05-05 03:28 28.45910 -88.13767 38204 ft 538 kts 132°
2026-05-05 03:28 28.43506 -88.10522 38460 ft 536 kts 132°
2026-05-05 03:28 28.41105 -88.07284 38710 ft 535 kts 132°
2026-05-05 03:29 28.38831 -88.03934 38864 ft 537 kts 121°
2026-05-05 03:29 28.37289 -88.00105 39024 ft 531 kts 105°
2026-05-05 03:29 28.34991 -87.92117 38958 ft 532 kts 107°
2026-05-05 03:30 28.32672 -87.84139 39071 ft 534 kts 106°
2026-05-05 03:30 28.30358 -87.76147 39051 ft 532 kts 106°
2026-05-05 03:31 28.28042 -87.68161 39062 ft 533 kts 106°
2026-05-05 03:31 28.25720 -87.60181 39049 ft 533 kts 106°
2026-05-05 03:32 28.23784 -87.53542 39050 ft 533 kts 106°
2026-05-05 03:32 28.21451 -87.45555 39050 ft 534 kts 106°
2026-05-05 03:33 28.19114 -87.37575 39056 ft 533 kts 106°
2026-05-05 03:33 28.16772 -87.29595 39061 ft 534 kts 106°
2026-05-05 03:34 28.14421 -87.21609 39054 ft 534 kts 106°
2026-05-05 03:34 28.12068 -87.13633 39055 ft 534 kts 106°
2026-05-05 03:35 28.09709 -87.05655 39049 ft 534 kts 106°
2026-05-05 03:35 28.07346 -86.97682 39051 ft 534 kts 106°
2026-05-05 03:36 28.04975 -86.89700 39052 ft 535 kts 106°
2026-05-05 03:36 28.02596 -86.81710 39029 ft 536 kts 106°
2026-05-05 03:37 27.99923 -86.73859 39006 ft 534 kts 115°
2026-05-05 03:37 27.98323 -86.70081 39156 ft 532 kts 115°
2026-05-05 03:37 27.96714 -86.66293 39103 ft 536 kts 115°
2026-05-05 03:38 27.93475 -86.58713 39038 ft 534 kts 115°
2026-05-05 03:38 27.90227 -86.51132 39049 ft 536 kts 115°
2026-05-05 03:39 27.86975 -86.43553 39047 ft 536 kts 115°
2026-05-05 03:39 27.83715 -86.35973 39046 ft 536 kts 115°
2026-05-05 03:40 27.80450 -86.28394 39045 ft 536 kts 115°
2026-05-05 03:40 27.77206 -86.20876 39044 ft 536 kts 115°
2026-05-05 03:41 27.73937 -86.13315 39047 ft 536 kts 115°
2026-05-05 03:41 27.70664 -86.05759 39045 ft 536 kts 115°
2026-05-05 03:42 27.67384 -85.98203 39047 ft 536 kts 115°
2026-05-05 03:42 27.64103 -85.90656 39048 ft 536 kts 115°
2026-05-05 03:43 27.60816 -85.83110 39048 ft 536 kts 115°
2026-05-05 03:43 27.57526 -85.75572 39047 ft 536 kts 115°
2026-05-05 03:44 27.54232 -85.68037 39052 ft 536 kts 115°
2026-05-05 03:44 27.50933 -85.60505 39048 ft 536 kts 115°
2026-05-05 03:45 27.47628 -85.52974 39052 ft 536 kts 115°
2026-05-05 03:45 27.44324 -85.45454 39052 ft 536 kts 115°
2026-05-05 03:46 27.41230 -85.37834 38951 ft 533 kts 101°
2026-05-05 03:46 27.40648 -85.33787 38881 ft 517 kts 87°
2026-05-05 03:46 27.40386 -85.29784 39175 ft 514 kts 90°
2026-05-05 03:47 27.40052 -85.25753 38982 ft 521 kts 90°
2026-05-05 03:47 27.39738 -85.21687 39033 ft 522 kts 90°
2026-05-05 03:47 27.39138 -85.13517 39051 ft 526 kts 89°
2026-05-05 03:48 27.38538 -85.05315 39033 ft 525 kts 90°
2026-05-05 03:48 27.37934 -84.97119 39045 ft 525 kts 90°
2026-05-05 03:49 27.37329 -84.88983 39052 ft 526 kts 90°
2026-05-05 03:49 27.36715 -84.80788 39047 ft 526 kts 90°
2026-05-05 03:50 27.36097 -84.72594 39051 ft 526 kts 90°
2026-05-05 03:50 27.35372 -84.64408 39060 ft 526 kts 91°
2026-05-05 03:51 27.34629 -84.56217 39045 ft 526 kts 91°
2026-05-05 03:51 27.33885 -84.48039 39049 ft 526 kts 91°
2026-05-05 03:52 27.33135 -84.39856 39047 ft 526 kts 91°
2026-05-05 03:52 27.32381 -84.31670 39048 ft 526 kts 91°
2026-05-05 03:53 27.31621 -84.23486 39053 ft 525 kts 91°
2026-05-05 03:53 27.30860 -84.15329 39047 ft 525 kts 91°
2026-05-05 03:54 27.30093 -84.07172 39047 ft 525 kts 91°
2026-05-05 03:54 27.29322 -83.99014 39043 ft 524 kts 91°
2026-05-05 03:55 27.28938 -83.94981 38803 ft 515 kts 91°
2026-05-05 03:55 27.28558 -83.90983 38094 ft 515 kts 91°
2026-05-05 03:55 27.28174 -83.86965 37265 ft 518 kts 91°
2026-05-05 03:55 27.27788 -83.82940 36621 ft 517 kts 91°
2026-05-05 03:56 27.27403 -83.78933 36112 ft 514 kts 91°
2026-05-05 03:56 27.27019 -83.74957 35591 ft 511 kts 90°
2026-05-05 03:56 27.26636 -83.70989 34986 ft 510 kts 90°
2026-05-05 03:56 27.26251 -83.67024 34332 ft 512 kts 90°
2026-05-05 03:57 27.25863 -83.63046 33630 ft 510 kts 90°
2026-05-05 03:57 27.25479 -83.59120 32962 ft 501 kts 90°
2026-05-05 03:57 27.25102 -83.55277 32441 ft 489 kts 90°
2026-05-05 03:57 27.24734 -83.51526 31984 ft 477 kts 90°
2026-05-05 03:58 27.24374 -83.47858 31449 ft 468 kts 90°
2026-05-05 03:58 27.24018 -83.44252 30897 ft 460 kts 90°
2026-05-05 03:58 27.23668 -83.40707 30380 ft 453 kts 90°
2026-05-05 03:58 27.23322 -83.37225 29853 ft 445 kts 90°
2026-05-05 03:59 27.22751 -83.33818 29261 ft 442 kts 99°
2026-05-05 03:59 27.22079 -83.30491 28785 ft 431 kts 97°
2026-05-05 03:59 27.21460 -83.27235 28434 ft 423 kts 97°
2026-05-05 03:59 27.20849 -83.23962 27953 ft 432 kts 97°
2026-05-05 04:00 27.20234 -83.20646 27469 ft 435 kts 98°
2026-05-05 04:00 27.19626 -83.17357 27042 ft 436 kts 98°
2026-05-05 04:00 27.19008 -83.14021 26577 ft 436 kts 98°
2026-05-05 04:00 27.18390 -83.10681 26095 ft 437 kts 99°
2026-05-05 04:01 27.17768 -83.07337 25628 ft 438 kts 99°
2026-05-05 04:01 27.17147 -83.03991 25162 ft 438 kts 100°
2026-05-05 04:01 27.16524 -83.00642 24690 ft 439 kts 100°
2026-05-05 04:01 27.15899 -82.97289 24228 ft 439 kts 101°
2026-05-05 04:02 27.15272 -82.93930 23766 ft 440 kts 101°
2026-05-05 04:02 27.14644 -82.90566 23234 ft 441 kts 101°
2026-05-05 04:02 27.14015 -82.87199 22723 ft 440 kts 101°
2026-05-05 04:02 27.13171 -82.83918 22205 ft 438 kts 116°
2026-05-05 04:03 27.11582 -82.81032 21764 ft 432 kts 128°
2026-05-05 04:03 27.09906 -82.78263 21463 ft 426 kts 126°
2026-05-05 04:03 27.08260 -82.75513 21016 ft 424 kts 126°
2026-05-05 04:03 27.06610 -82.72770 20528 ft 423 kts 126°
2026-05-05 04:04 27.04966 -82.70041 20090 ft 421 kts 126°
2026-05-05 04:04 27.03329 -82.67327 19653 ft 419 kts 126°
2026-05-05 04:04 27.01702 -82.64631 19213 ft 417 kts 126°
2026-05-05 04:04 27.00078 -82.61942 18778 ft 415 kts 126°
2026-05-05 04:05 26.98462 -82.59268 18332 ft 413 kts 126°
2026-05-05 04:05 26.96853 -82.56608 17835 ft 411 kts 126°
2026-05-05 04:05 26.95255 -82.53966 17405 ft 407 kts 126°
2026-05-05 04:05 26.93670 -82.51349 16979 ft 404 kts 126°
2026-05-05 04:06 26.92097 -82.48753 16516 ft 402 kts 126°
2026-05-05 04:06 26.90537 -82.46178 16121 ft 398 kts 126°
2026-05-05 04:06 26.88998 -82.43641 15679 ft 386 kts 126°
2026-05-05 04:06 26.87514 -82.41195 15243 ft 374 kts 126°
2026-05-05 04:07 26.86077 -82.38829 14859 ft 362 kts 126°
2026-05-05 04:07 26.84683 -82.36533 14488 ft 350 kts 126°
2026-05-05 04:07 26.83334 -82.34314 14109 ft 340 kts 126°
2026-05-05 04:07 26.82021 -82.32154 13716 ft 331 kts 126°
2026-05-05 04:08 26.80744 -82.30056 13338 ft 323 kts 126°
2026-05-05 04:08 26.79337 -82.28132 12946 ft 318 kts 143°
2026-05-05 04:08 26.77553 -82.26703 12586 ft 314 kts 148°
2026-05-05 04:08 26.75779 -82.25287 12276 ft 311 kts 147°
2026-05-05 04:09 26.74021 -82.23889 11951 ft 309 kts 147°
2026-05-05 04:09 26.72270 -82.22503 11621 ft 308 kts 147°
2026-05-05 04:09 26.70526 -82.21123 11285 ft 306 kts 147°
2026-05-05 04:09 26.68795 -82.19756 10957 ft 304 kts 147°
2026-05-05 04:10 26.67068 -82.18393 10636 ft 303 kts 147°
2026-05-05 04:10 26.65350 -82.17037 10300 ft 302 kts 147°
2026-05-05 04:10 26.63646 -82.15694 10051 ft 297 kts 148°
2026-05-05 04:10 26.61963 -82.14367 9737 ft 295 kts 148°
2026-05-05 04:11 26.60311 -82.13064 9395 ft 294 kts 148°
2026-05-05 04:11 26.58647 -82.11752 9065 ft 292 kts 148°
2026-05-05 04:11 26.56998 -82.10455 8751 ft 289 kts 148°
2026-05-05 04:11 26.55356 -82.09161 8434 ft 287 kts 147°
2026-05-05 04:12 26.53725 -82.07878 8121 ft 286 kts 147°
2026-05-05 04:12 26.52106 -82.06605 7807 ft 284 kts 147°
2026-05-05 04:12 26.50514 -82.05307 7482 ft 283 kts 145°
2026-05-05 04:12 26.48949 -82.03981 7152 ft 282 kts 144°
2026-05-05 04:13 26.47395 -82.02662 6853 ft 279 kts 144°
2026-05-05 04:13 26.45852 -82.01353 6559 ft 278 kts 144°
2026-05-05 04:13 26.44316 -82.00051 6245 ft 276 kts 145°
2026-05-05 04:13 26.42787 -81.98755 5916 ft 276 kts 144°
2026-05-05 04:14 26.41266 -81.97465 5614 ft 274 kts 144°
2026-05-05 04:14 26.39754 -81.96183 5299 ft 272 kts 143°
2026-05-05 04:14 26.38250 -81.94907 5000 ft 271 kts 143°
2026-05-05 04:14 26.36756 -81.93637 4698 ft 269 kts 143°
2026-05-05 04:15 26.35273 -81.92377 4392 ft 267 kts 143°
2026-05-05 04:15 26.33807 -81.91130 4081 ft 264 kts 142°
2026-05-05 04:15 26.32365 -81.89906 3900 ft 257 kts 143°
2026-05-05 04:15 26.30977 -81.88724 3847 ft 245 kts 143°
2026-05-05 04:16 26.29665 -81.87606 3849 ft 231 kts 142°
2026-05-05 04:16 26.28431 -81.86551 3852 ft 217 kts 142°
2026-05-05 04:16 26.27288 -81.85506 3816 ft 207 kts 130°
2026-05-05 04:16 26.26729 -81.84100 3736 ft 198 kts 95°
2026-05-05 04:17 26.27042 -81.82637 3689 ft 198 kts 58°
2026-05-05 04:17 26.28098 -81.81661 3655 ft 202 kts 22°
2026-05-05 04:17 26.29470 -81.81426 3675 ft 206 kts 359°
2026-05-05 04:17 26.30914 -81.81576 3716 ft 210 kts 353°
2026-05-05 04:18 26.32353 -81.81862 3716 ft 210 kts 346°
2026-05-05 04:18 26.33595 -81.82659 3581 ft 209 kts 310°
2026-05-05 04:18 26.34286 -81.84071 3446 ft 209 kts 284°
2026-05-05 04:18 26.34545 -81.85678 3319 ft 212 kts 275°
2026-05-05 04:19 26.34597 -81.87312 3179 ft 211 kts 266°
2026-05-05 04:19 26.34553 -81.88950 3010 ft 212 kts 265°
2026-05-05 04:19 26.34411 -81.90582 2824 ft 211 kts 255°
2026-05-05 04:19 26.33752 -81.91987 2568 ft 202 kts 218°
2026-05-05 04:20 26.32982 -81.92523 2422 ft 195 kts 192°
2026-05-05 04:20 26.31321 -81.92285 2244 ft 181 kts 140°
2026-05-05 04:20 26.30763 -81.91618 2258 ft 177 kts 122°
2026-05-05 04:20 26.30132 -81.90417 2376 ft 182 kts 112°
2026-05-05 04:21 26.29801 -81.89073 2325 ft 179 kts 99°
2026-05-05 04:21 26.29705 -81.87681 2347 ft 181 kts 95°
2026-05-05 04:21 26.29628 -81.86278 2383 ft 182 kts 91°
2026-05-05 04:21 26.29735 -81.84876 2399 ft 182 kts 79°
2026-05-05 04:22 26.30219 -81.83566 2321 ft 187 kts 58°
2026-05-05 04:22 26.31142 -81.82542 2307 ft 190 kts 37°
2026-05-05 04:22 26.32380 -81.81970 2342 ft 198 kts 15°
2026-05-05 04:22 26.33780 -81.81987 2355 ft 205 kts 350°
2026-05-05 04:23 26.35114 -81.82592 2443 ft 209 kts 334°
2026-05-05 04:23 26.36402 -81.83355 2449 ft 209 kts 335°
2026-05-05 04:23 26.37688 -81.84094 2424 ft 208 kts 335°
2026-05-05 04:23 26.38985 -81.84823 2422 ft 209 kts 336°
2026-05-05 04:24 26.40291 -81.85549 2390 ft 209 kts 335°
2026-05-05 04:24 26.41589 -81.86264 2382 ft 207 kts 336°
2026-05-05 04:24 26.42863 -81.86963 2399 ft 195 kts 337°
2026-05-05 04:25 26.45205 -81.87338 2060 ft 163 kts 31°
2026-05-05 04:25 26.46066 -81.86597 1896 ft 154 kts 53°
2026-05-05 04:25 26.46840 -81.85758 1808 ft 155 kts 50°
2026-05-05 04:25 26.47536 -81.84852 1665 ft 152 kts 58°
2026-05-05 04:26 26.48161 -81.83907 1497 ft 151 kts 58°
2026-05-05 04:26 26.48768 -81.82968 1341 ft 146 kts 58°
2026-05-05 04:26 26.49331 -81.82102 1163 ft 133 kts 57°
2026-05-05 04:26 26.49865 -81.81279 993 ft 130 kts 56°
2026-05-05 04:27 26.50402 -81.80465 799 ft 132 kts 55°
2026-05-05 04:27 26.50938 -81.79636 581 ft 131 kts 58°
2026-05-05 04:27 26.51467 -81.78831 436 ft 128 kts 56°
2026-05-05 04:27 26.51993 -81.78040 217 ft 126 kts 54°
2026-05-05 04:28 26.52514 -81.77225 134 ft 130 kts 52°
2026-05-05 04:28 26.53057 -81.76386 54 ft 135 kts 51°
2026-05-05 04:28 26.53518 -81.75688 46 ft 53 kts 54°
2026-05-05 04:28 26.53673 -81.75441 43 ft 38 kts 50°
2026-05-05 04:29 26.53811 -81.75381 45 ft 14 kts 317°
2026-05-05 04:29 26.53814 -81.75428 46 ft 6 kts 245°
2026-05-05 04:29 26.53781 -81.75472 45 ft 9 kts 230°
2026-05-05 04:29 26.53724 -81.75557 45 ft 20 kts 233°
2026-05-05 04:30 26.53630 -81.75697 46 ft 22 kts 233°
2026-05-05 04:30 26.53591 -81.75753 46 ft 1 kts 233°
2026-05-05 04:30 26.53587 -81.75759 44 ft 1 kts 233°
2026-05-05 04:30 26.53574 -81.75778 46 ft 5 kts 233°
2026-05-05 04:31 26.53539 -81.75801 46 ft 7 kts 182°
2026-05-05 04:31 26.53465 -81.75746 46 ft 19 kts 154°
2026-05-05 04:31 26.53339 -81.75745 47 ft 17 kts 219°
2026-05-05 04:31 26.53259 -81.75846 47 ft 18 kts 209°
2026-05-05 04:32 26.53155 -81.75808 47 ft 17 kts 144°
2026-05-05 04:32 26.53085 -81.75751 44 ft 9 kts 136°
2026-05-05 04:32 26.53037 -81.75733 46 ft 8 kts 221°
2026-05-05 04:32 26.53016 -81.75773 43 ft 1 kts 233°
2026-05-05 04:33 26.53006 -81.75788 45 ft 4 kts 233°
2026-05-05 04:33 26.53005 -81.75790 46 ft 0 kts 233°